Current Version              Previous Version:    01  02  03  04  05  06  07  08  09  10  11  12  13  14  15  16  17  18  19  20  21  22  23  24  25  26  27  28  29  30  
   31  32  33  34  35  36  37  38  39  40  41  42  43  44  45  46  47  48  49  50  51  52  53  54  55  56  57  58  59  60  

[Printable]
049
ASUS44 KFWD 212110
RWRTX
NORTH TEXAS HOURLY WEATHER ROUNDUP
NATIONAL WEATHER SERVICE FORT WORTH TX
300 PM CST SUN DEC 21 2014

NOTE: "FAIR" INDICATES FEW OR NO CLOUDS BELOW 12,000 FEET WITH NO
SIGNIFICANT WEATHER AND/OR OBSTRUCTIONS TO VISIBILITY.

TXZ118-119-212200-
DALLAS/FORT WORTH METROPLEX

CITY           SKY/WX    TMP DP  RH WIND       PRES   REMARKS
DFW AIRPORT    CLOUDY    51  45  79 S15       29.87F
DALLAS LOVE    CLOUDY    52  44  74 S16       29.88F
FTW MEACHAM    CLOUDY    52  46  80 S13       29.86F HAZE
DAL-EXECUTIVE  CLOUDY    53  44  71 S9G18     29.89F
FTW-ALLIANCE   CLOUDY    50  45  83 S13       29.86F HAZE
FTW-SPINKS     CLOUDY    52  46  82 S12       29.89F HAZE
ARLINGTON      CLOUDY    53  44  71 SE14G20   29.88F
GRAND PRAIRIE  CLOUDY    52  46  82 S12       29.90F
ADDISON        CLOUDY    50  45  81 SE13G18   29.89
MESQUITE       CLOUDY    50  45  81 SE9G17    29.92F
LANCASTER      CLOUDY    51  43  74 S12       29.92F
$$

TXZ091>094-102>105-117-120-121-131>134-212200-
NORTH CENTRAL TEXAS

CITY           SKY/WX    TMP DP  RH WIND       PRES   REMARKS
SHRMAN/DENISON CLOUDY    50  46  87 SE15      29.88F
GAINESVILLE    CLOUDY    49  45  84 S17       29.87F
BOWIE          CLOUDY    49  46  88 S15G23    29.80F
BRIDGEPORT     CLOUDY    51  47  86 S8G17     29.85F
DECATUR        CLOUDY    48  47  97 S12       29.85F FOG
DENTON         CLOUDY    50  45  83 S16       29.86F HAZE
MCKINNEY       CLOUDY    50  44  80 S15       29.89F
GREENVILLE     CLOUDY    50  43  76 S8        29.92F
ROCKWALL       CLOUDY    50  45  82 S13G21    29.90F
TERRELL        CLOUDY    51  45  79 S14       29.92F
WAXAHACHIE     CLOUDY    51  47  85 S9G16     29.92S
CLEBURNE       CLOUDY    52  48  87 S12       29.89F
GRANBURY       CLOUDY    54  47  78 SE14      29.85F
$$

TXZ083>090-098>101-113>116-127>130-139>142-154-155-212200-
WESTERN NORTH TEXAS

CITY           SKY/WX    TMP DP  RH WIND       PRES   REMARKS
WICHITA FALLS  CLOUDY    53  45  74 S21G26    29.75F
WF-KICKAPOO    PTSUNNY   55  45  68 S14G23    29.77F
VERNON         MOSUNNY   60  42  51 SE13      29.72F
ABILENE        SUNNY     60  42  51 S23G30    29.78F
BRECKENRIDGE   MOSUNNY   58  44  58 S18G24    29.79F HAZE
GRAHAM         PTSUNNY   55  46  73 SE12G17   29.78F
MINERAL WELLS  CLOUDY    53  45  74 S12       29.82F
STEPHENVILLE   CLOUDY    53  45  74 S15       29.85F
COMANCHE       CLOUDY    54  47  77 S14G25    29.84F
BROWNWOOD      CLOUDY    55  45  67 S15G21    29.84F
COLEMAN        PTSUNNY   57  47  70 S13G21    29.83R
$$

TXZ143>147-156>162-174-175-212200-
CENTRAL TEXAS

CITY           SKY/WX    TMP DP  RH WIND       PRES   REMARKS
WACO           CLOUDY    54  46  74 S14       29.92F
WACO-TSTC      CLOUDY    54  46  76 S12       29.92F
WACO-MCGREGOR  CLOUDY    54  43  66 S13       29.92F
HILLSBORO      CLOUDY    53  46  76 S13       29.91S
CORSICANA      CLOUDY    52  45  77 S10       29.94F
MEXIA          CLOUDY    52  46  79 S10       29.92F
HEARNE         CLOUDY    53  47  79 SE6       29.97F
CAMERON        CLOUDY    54  48  79 S12       29.94F
TEMPLE         CLOUDY    54  43  66 S15       29.90F
KILLEEN        CLOUDY    53  48  83 S13       29.89F
KILLEEN-SKYLRK CLOUDY    55  45  67 S12       29.89F
FORT HOOD      CLOUDY    54  48  80 S13       29.89F
GATESVILLE     PTSUNNY   54  46  76 S9G16     29.91F
HAMILTON       CLOUDY    53  48  86 S10G24    29.89F
$$

TXZ095>097-106>112-122>126-135>138-148>153-164>167-212200-
EAST TEXAS

CITY           SKY/WX    TMP DP  RH WIND       PRES   REMARKS
PARIS          CLOUDY    48  43  81 S14       29.94F
SULPHUR SPRNGS CLOUDY    51  44  77 S7        29.95F
MOUNT PLEASANT CLOUDY    50  43  76 S10       29.97F
MINEOLA        CLOUDY    52  45  76 SE7       29.95F
TYLER          CLOUDY    53  43  68 S10       29.94F
LONGVIEW       CLOUDY    51  44  77 S8        29.96F
MARSHALL       CLOUDY    56  47  72 S6        29.99F
ATHENS         CLOUDY    50  43  76 S8        29.94F
PALESTINE      CLOUDY    53  46  78 SE8       29.96F
JACKSONVILLE   CLOUDY    51  45  78 S6        29.97F
HENDERSON      CLOUDY    50  44  79 S8        29.98F
NACOGDOCHES    CLOUDY    52  43  71 S5        30.00F
LUFKIN         CLOUDY    55  45  68 CALM      29.99F
$$

SUPPLEMENTAL OBSERVATIONS (CENTRAL)

CITY           SKY/WX    TMP DP  RH WIND       PRES   REMARKS
PAT MAYSE LAKE   N/A     48  45  87 SE12        N/A
GREENVILLE       N/A     50  43  76 S7G15       N/A
CEDAR HILL       N/A     52  45  76 S10         N/A
PALESTINE        N/A     54  45  71 S8          N/A
MCGREGOR         N/A     54  46  76 S13         N/A
TEMPLE           N/A     54  46  76 S15         N/A
$$

SUPPLEMENTAL OBSERVATIONS (WEST)

CITY           SKY/WX    TMP DP  RH WIND       PRES   REMARKS
MILLERS CREEK    N/A     63  52  67 S17G25      N/A
POSSUM KINGDOM   N/A     55  43  62 S13G21      N/A
GRANBURY         N/A     54  46  76 S16         N/A
HAMBY            N/A     61  43  51 SW20G26     N/A
IVIE RESERVOIR   N/A     63  45  51 S14         N/A
COLORADO BEND    N/A     54  46  76 S9G17       N/A
$$

SUPPLEMENTAL OBSERVATIONS (EAST)

CITY           SKY/WX    TMP DP  RH WIND       PRES   REMARKS
CLARKSVILLE      N/A     50  43  76 S10         N/A
TEXARKANA        N/A     55  43  62 SE6         N/A
LINDEN           N/A     52  43  71 S3          N/A
GILMER           N/A     50  43  76 S6          N/A
HENDERSON        N/A     52  45  76 S9          N/A
N SABINE NF      N/A     59  45  58 MISG        N/A
S SABINE NF      N/A     61  46  59 S3          N/A
$$

SUPPLEMENTAL OBSERVATIONS ARE A COLLECTION OF AUTOMATED INSTRUMENTS
THAT ARE MAINTAINED BY A VARIETY OF FEDERAL AND STATE AGENCIES.
CERTAIN ELEMENTS...SUCH AS HUMIDITY VALUES AND SUSTAINED WIND
SPEEDS...MAY BE APPROXIMATED.